SCP
-0 -0 -0 -0 -0 -0 -0 -0 -0 -0 -0 -0 -0 0 0 0 0 -0 -0 0 0 -0 0 0 -0 -0 -0 -0 0 0 0 -0 0 -0 -0 0 -0 -0 -0 -0 -0 0 -0 -0 -0
0 -0 -0 -0 -0 -0 -0 -0 -0 -0 -0 -0 -0 -0 0 0 0 0 0 0 -0 -0 0 0 0 0 0 0 0 0 -0 -0 -0 -0 -0 -0 0 -0 -0 -0 -0 -0 -0 -0 -0
0 0 0 0 -0 -0 -0 -0 -0 -0 -0 -0 -0 -0 -0 0 0 0 0 0 -0 -0 0 0 0 0 -0 0 -0 0 -0 -0 -0 -0 -0 0 0 -0 -0 -0 -0 -0 -0 -0 -0
0 0 0 0 0 -0 -0 -0 -0 -0 -0 -0 -0 -0 -0 0 0 0 0 0 0 0 -0 0 0 -0 -0 -0 -0 0 -0 0 -0 0 0 0 0 -0 0 -0 -0 -0 -0 -0 -0
-0 -0 -0 0 0 -0 -0 -0 -0 -0 -0 -0 -0 0 0 -0 -0 0 0 0 0 -0 -0 -0 0 0 -0 0 0 -0 -0 -0 -0 -0 -0 -0 0 0 0 0 -0 -0 -0 -0 -0
-0 -0 -0 -0 -0 0 0 0 -0 -0 -0 -0 0 0 0 -0 0 0 0 0 0 -0 0 0 0 0 0 0 0 0 0 0 0 -0 -0 0 0 0 -0 -0 -0 -0 -0 -0 -0
-0 -0 -0 -0 -0 -0 0 0 0 0 0 0 -0 0 0 0 0 0 0 -0 0 0 0 0 0 0 0 0 0 0 0 -0 -0 0 0 -0 0 -0 -0 -0 -0 -0 -0 -0 -0
-0 -0 -0 -0 -0 -0 -0 -0 0 0 0 0 -0 -0 0 0 0 0 0 0 0 0 0 0 0 0 -0 0 0 -0 -0 -0 -0 0 -0 -0 -0 -0 -0 -0 -0 -0 -0 -0 -0
-0 -0 -0 -0 -0 -0 -0 -0 -0 0 0 0 0 0 0 0 0 -0 0 0 0 0 0 0 0 0 0 0 -0 -0 -0 0 -0 0 -0 -0 -0 -0 -0 -0 -0 -0 -0 -0 -0
-0 -0 -0 -0 -0 -0 -0 -0 0 0 0 0 0 0 -0 -0 0 -0 0 0 0 0 0 0 0 0 -0 -0 0 -0 -0 -0 -0 0 0 -0 -0 -0 -0 -0 -0 -0 -0 -0 -0
0 0 -0 -0 -0 -0 -0 0 0 0 0 0 0 0 0 0 0 0 0 0 0 0 0 -0 -0 -0 0 0 -0 -0 -0 -0 -0 -0 -0 0 0 -0 -0 -0 -0 -0 -0 -0 -0
0 0 0 -0 -0 -0 0 0 0 0 -0 -0 0 0 0 0 0 0 0 0 0 -0 0 0 -0 0 0 -0 -0 0 0 -0 0 0 0 -0 -0 0 -0 -0 -0 -0 -0 -0 -0
0 0 0 0 -0 0 0 0 0 0 0 -0 -0 0 0 0 0 0 0 -0 0 -0 -0 -0 0 -0 -0 -0 -0 0 0 0 0 0 0 -0 -0 0 -0 -0 -0 -0 -0 -0 -0
0 0 0 0 0 0 0 0 0 0 0 0 0 0 0 0 0 0 0 0 0 0 0 -0 0 -0 -0 -0 -0 -0 0 0 0 0 -0 -0 -0 -0 -0 -0 -0 -0 -0 -0 -0
0 0 0 0 0 0 0 0 0 0 0 0 0 0 0 0 0 0 0 -0 0 0 0 -0 -0 -0 -0 -0 -0 -0 -0 -0 0 0 0 0 -0 0 0 0 -0 -0 -0 -0 -0
0 0 0 0 0 0 0 0 0 0 0 0 0 0 0 -0 -0 0 0 -0 0 0 0 0 0 0 -0 -0 -0 0 -0 0 -0 0 -0 0 -0 0 0 0 -0 -0 -0 -0 -0
0 0 0 0 0 0 0 0 0 0 0 0 0 0 -0 -0 0 0 0 0 0 0 0 0 0 0 0 0 -0 -0 -0 0 -0 -0 -0 0 0 0 0 -0 -0 -0 -0 -0 -0
0 0 0 0 0 0 0 0 0 0 0 0 0 0 0 0 0 -0 0 0 0 0 0 0 0 0 0 -0 -0 -0 -0 -0 0 0 -0 0 0 0 0 0 0 0 -0 -0 -0
0 0 0 0 0 0 0 0 0 0 0 0 0 0 0 0 0 0 -0 0 0 0 0 0 0 0 0 0 -0 -0 -0 -0 0 -0 0 -0 0 0 0 0 0 0 0 0 -0
0 0 0 0 0 0 0 0 0 0 0 0 0 0 0 0 0 0 0 -0 0 0 0 0 0 0 0 0 0 -0 0 0 0 0 0 0 0 0 0 0 0 0 0 0 0
0 0 0 0 0 0 0 0 0 0 0 0 0 0 0 0 0 0 0 0 -0 0 0 0 0 0 0 0 0 0 0 0 0 0 0 0 0 0 0 0 0 -0 0 -0 -0
0 0 0 0 0 0 0 0 0 0 0 0 0 0 0 0 0 0 0 0 0 -0 0 0 0 0 0 0 0 0 0 0 0 0 0 0 0 0 0 0 0 -0 0 0 0
0 0 0 0 0 0 0 0 0 0 0 0 0 0 0 0 0 0 0 0 0 0 -0 0 0 0 0 0 0 0 0 0 0 0 0 0 0 0 0 0 0 0 0 0 0
0 0 -0 0 0 0 0 0 0 0 0 0 0 0 0 0 0 0 0 0 0 0 0 0 0 0 0 0 0 0 0 0 0 0 0 0 0 0 0 0 0 0 0 0 0
0 0 0 0 0 0 0 0 0 0 0 0 0 0 0 0 0 0 0 0 0 0 0 0 0 0 0 0 0 0 0 0 0 0 0 0 0 0 0 0 0 0 0 0 0
0 0 0 0 0 0 0 0 0 0 0 0 0 0 0 0 0 0 0 0 0 0 0 0 0 0 0 0 0 0 0 0 0 0 0 0 0 0 0 0 0 0 0 0 0
0 0 0 0 0 0 0 0 0 0 0 0 0 0 0 0 0 0 0 0 0 0 0 0 0 0 0 0 0 0 0 0 0 0 0 0 0 0 0 0 0 0 0 0 0
Wind_Speed_500mb
27 27 28 28 28 28 29 29 28 28 28 28 29 29 29 29 31 32 29 29 27 25 22 15 18 20 18 25 29 32 26 22 16 26 26 23 24 19 19 29 18 7 42 55 51
31 31 30 30 31 30 30 30 30 30 29 29 29 30 30 31 32 37 38 39 36 30 29 28 22 19 25 23 12 26 8 24 26 24 24 22 22 26 24 24 22 38 51 53 53
31 33 34 34 33 32 32 31 32 31 30 29 28 28 28 29 34 41 33 41 39 34 29 30 23 24 32 28 12 13 16 11 19 28 26 24 27 26 24 22 27 43 56 54 50
33 33 34 36 37 36 34 33 33 32 31 29 28 26 26 20 13 2 14 23 41 35 35 35 34 32 35 21 4 21 13 6 27 25 22 23 25 19 9 23 30 41 50 51 47
35 36 37 36 37 38 38 36 34 33 32 29 27 25 24 22 38 27 18 9 38 43 44 41 39 33 32 9 6 16 13 9 21 15 28 20 17 18 17 20 34 44 46 45 43
36 37 38 40 39 39 40 39 36 33 32 29 27 25 23 38 16 13 21 21 28 45 45 44 33 32 33 20 19 9 15 19 20 24 15 23 22 23 19 30 39 43 43 42 41
37 38 39 40 40 40 39 40 37 34 31 28 25 24 25 42 12 13 22 27 30 44 45 44 39 21 22 25 11 12 20 20 22 21 17 22 21 30 29 34 38 39 39 38 37
40 40 39 40 41 40 39 39 37 33 29 24 22 19 27 13 33 25 24 25 28 34 40 36 35 32 40 10 16 25 30 31 27 22 16 16 25 29 36 37 37 38 39 39 38
43 43 41 41 41 40 38 35 34 31 26 18 11 16 35 24 30 34 32 30 31 31 36 31 34 38 36 28 28 26 30 30 27 27 15 21 29 34 35 37 37 37 37 39 39
46 46 45 42 42 40 32 28 27 26 21 14 20 16 39 30 25 36 38 29 33 33 33 36 29 30 34 29 32 39 41 44 38 24 19 15 23 27 34 35 36 38 38 39 41
49 48 48 42 40 34 23 13 11 9 30 34 20 28 10 19 22 37 44 37 36 39 32 49 34 40 47 44 49 32 32 42 25 37 21 27 17 36 34 36 37 40 42 43 43
51 50 48 40 36 20 19 11 7 12 26 44 53 43 16 26 28 40 48 45 39 38 44 32 47 47 46 46 47 24 27 33 26 31 21 22 22 22 39 39 41 43 44 46 46
54 52 50 40 18 22 9 2 11 20 19 37 58 61 53 33 38 50 59 59 39 45 49 44 46 49 47 45 41 35 34 25 24 22 24 23 18 24 34 43 41 43 45 46 50
53 51 49 42 9 20 4 9 18 16 12 29 30 39 61 45 49 47 59 58 30 43 46 50 43 49 47 48 44 40 39 34 27 27 28 35 27 32 36 40 40 49 50 52 52
53 49 46 39 30 11 15 21 21 8 12 24 29 15 48 65 28 65 59 62 48 39 34 47 46 49 53 48 46 40 39 36 34 25 32 28 19 13 11 26 33 48 55 55 56
54 47 48 22 26 26 23 24 12 13 20 20 25 28 36 57 58 56 63 66 54 39 41 47 52 52 46 45 46 44 44 30 35 27 29 39 23 26 25 26 33 42 56 59 57
52 47 42 30 15 21 24 13 13 21 12 23 30 36 43 38 53 45 60 54 47 42 43 45 51 43 39 45 55 50 44 22 27 28 27 33 30 31 7 28 32 39 52 58 61
51 43 36 24 24 23 14 18 26 19 48 7 28 38 42 39 51 41 56 48 57 48 30 38 41 46 46 55 54 51 47 30 37 27 33 37 33 14 20 22 15 20 47 51 62
49 34 27 22 19 15 24 29 17 36 18 24 23 32 40 39 37 43 53 55 57 53 50 41 52 50 49 42 55 56 47 49 45 41 32 30 32 34 31 28 24 27 33 45 55
53 40 34 23 19 20 24 47 38 21 15 20 35 30 38 43 40 52 50 55 57 62 50 39 31 47 49 45 55 58 42 46 37 44 42 34 23 18 33 29 32 31 36 40 40
32 23 10 7 10 32 29 42 48 68 37 21 29 39 34 39 44 41 52 43 58 58 56 49 25 38 46 49 49 46 47 39 49 40 37 32 29 28 22 19 23 29 33 40 45
29 15 4 8 26 30 31 44 51 51 44 40 34 34 38 36 36 47 44 41 36 54 63 54 27 34 50 45 46 52 57 55 30 47 38 35 33 26 28 29 33 32 19 21 9
24 37 31 20 16 26 36 42 40 32 33 39 46 45 34 35 36 31 36 41 15 40 56 46 43 30 44 40 47 54 50 55 50 42 41 37 34 30 10 17 24 17 16 21 16
27 12 21 27 37 27 32 22 16 28 35 48 43 43 44 43 37 29 37 24 7 28 16 52 42 49 36 42 43 51 55 56 52 39 43 45 43 35 27 32 33 32 31 30 27
25 13 14 14 3 9 20 21 27 28 27 40 29 46 43 42 40 38 36 29 15 29 24 34 48 49 52 51 47 47 50 53 59 56 50 43 50 45 33 29 22 31 33 27 31
36 19 23 34 32 21 23 26 35 35 30 22 31 18 30 43 39 34 42 42 20 37 35 43 39 44 51 48 51 43 53 50 59 60 56 53 50 35 41 52 46 38 39 34 23
18 27 25 28 27 21 21 22 26 13 10 33 18 19 20 15 37 41 43 46 34 22 38 45 36 37 44 46 46 49 58 50 53 52 43 48 49 44 44 25 23 38 40 34 36
Wind_Direction_500mb
320 316 314 313 311 311 311 311 309 308 306 305 307 308 310 306 299 291 266 255 240 241 231 207 226 244 256 259 262 278 270 62 89 70 99 121 110 76 93 128 137 61 137 147 150
319 318 315 310 306 305 305 306 306 303 302 301 301 303 307 307 298 273 257 242 238 236 210 202 223 241 254 258 264 269 11 57 47 112 108 104 111 121 136 117 123 119 130 147 152
315 313 313 311 306 302 301 301 299 298 297 297 297 298 303 312 303 244 229 238 230 223 205 214 236 239 259 261 262 303 39 65 82 84 122 119 116 147 123 147 140 138 148 155 161
314 310 308 308 306 302 300 298 296 295 295 294 294 292 294 300 281 226 245 247 214 202 201 218 233 239 248 245 119 270 97 15 94 113 120 116 131 146 95 70 142 150 157 160 167
321 315 310 305 303 302 300 298 296 295 294 293 290 288 290 256 254 252 253 265 195 190 203 213 223 232 258 295 253 233 93 146 124 108 90 133 94 114 79 126 140 151 160 165 170
330 324 316 310 305 300 298 297 296 293 291 289 285 280 274 259 243 238 234 237 200 195 205 211 223 234 286 292 278 90 195 142 141 117 143 116 121 160 121 137 144 156 166 171 174
331 328 325 319 311 304 297 293 292 291 288 284 277 270 254 244 233 230 203 211 198 202 209 213 222 247 226 262 219 185 164 154 147 157 150 136 159 101 141 150 154 165 172 176 179
331 328 326 323 318 309 299 292 291 290 286 278 266 255 262 268 227 221 193 195 197 207 213 217 224 249 259 292 225 219 177 180 155 170 132 232 114 135 153 160 166 174 178 181 185
330 328 327 327 321 315 305 295 290 289 282 269 252 233 259 216 225 210 199 199 200 205 208 215 219 233 231 235 221 215 207 124 159 192 148 161 134 139 168 169 173 183 185 188 189
329 328 328 332 325 321 314 302 292 282 271 252 241 243 235 226 214 201 195 190 184 181 189 204 212 223 232 214 223 192 231 138 198 175 180 200 118 153 178 181 182 188 189 194 195
329 328 327 334 330 330 332 322 294 224 219 228 231 224 175 177 174 193 187 185 185 187 193 198 203 211 208 217 239 201 156 251 164 156 196 222 186 156 182 194 191 191 194 199 202
332 330 328 336 332 343 4 322 4 327 293 249 246 238 219 195 192 191 185 187 196 199 206 184 214 214 223 219 239 256 258 216 157 144 205 198 218 191 171 204 199 195 196 203 201
332 332 330 339 345 4 329 359 336 328 262 267 229 220 214 206 218 191 191 201 195 204 203 210 211 220 214 224 232 241 238 234 183 163 204 252 254 233 189 188 209 206 200 202 203
330 333 334 334 342 330 328 294 328 319 272 237 207 221 212 206 225 206 199 203 206 214 217 225 218 206 223 225 217 231 227 250 237 163 215 204 254 200 198 191 194 209 202 200 202
324 330 328 332 312 314 299 316 313 288 272 114 152 186 192 194 178 207 196 208 220 212 216 216 220 224 219 213 221 231 222 225 255 190 254 173 256 265 168 191 194 204 206 205 199
318 324 321 338 300 287 301 305 298 231 240 172 152 189 177 198 228 186 199 208 220 225 224 235 214 230 219 216 224 222 242 203 235 245 223 243 237 224 207 199 188 197 207 207 203
314 315 311 299 247 281 301 279 224 238 112 175 176 181 193 190 213 176 193 200 207 214 215 214 232 221 217 222 220 217 232 219 220 225 240 236 218 250 206 174 184 180 201 205 205
314 314 313 279 261 279 274 227 236 241 232 59 201 186 202 192 209 195 190 203 211 212 205 206 216 204 216 227 218 216 222 225 214 226 233 223 250 242 251 274 231 199 183 198 205
319 319 290 265 251 241 230 219 218 242 275 228 209 214 207 205 195 190 213 209 205 214 224 200 223 192 217 216 228 211 221 234 245 223 243 237 194 223 222 218 230 232 193 189 203
325 312 271 236 246 227 229 235 227 278 340 300 254 216 216 207 199 201 203 211 216 211 221 241 222 214 199 213 227 231 205 228 239 245 254 252 232 227 186 216 227 228 208 197 206
333 291 181 245 218 225 231 231 245 265 287 262 270 260 239 219 208 220 212 217 210 210 217 235 233 209 191 208 209 221 224 218 239 236 248 250 252 211 220 189 218 227 209 199 197
301 267 190 262 244 231 237 236 255 261 266 253 263 277 286 268 251 212 224 223 215 213 207 219 227 237 201 204 222 223 219 232 233 229 249 251 249 250 215 184 223 248 242 276 322
287 282 271 246 250 233 248 237 252 266 252 256 252 254 267 274 268 251 247 220 248 208 221 199 227 223 248 195 209 224 225 226 230 246 241 234 242 251 133 161 189 218 249 239 249
292 292 206 215 250 288 292 281 266 255 254 264 274 265 251 244 259 256 245 221 188 245 341 204 219 229 220 222 201 217 223 232 229 233 234 243 252 238 225 198 205 227 229 235 231
261 274 4 295 252 297 313 294 280 262 242 258 264 251 258 242 240 237 256 254 197 240 264 230 224 231 233 255 222 201 220 231 234 235 239 235 239 239 229 247 228 236 253 255 260
281 330 329 290 286 269 257 254 250 250 265 258 242 291 248 253 248 239 245 250 235 221 223 229 226 233 239 234 250 252 219 220 233 232 233 243 254 252 241 244 240 240 243 258 255
292 295 300 287 270 255 260 264 250 11 259 264 346 327 265 309 326 315 308 303 298 283 214 229 218 222 235 229 238 242 238 225 220 236 228 236 241 248 257 259 241 245 250 250 250
Wind_Speed_850mb
27 27 28 28 28 28 29 29 28 28 28 28 29 29 29 29 31 32 29 29 27 25 22 15 18 20 18 25 29 32 26 22 16 26 26 23 24 19 19 29 18 7 42 55 51
31 31 30 30 31 30 30 30 30 30 29 29 29 30 30 31 32 37 38 39 36 30 29 28 22 19 25 23 12 26 8 24 26 24 24 22 22 26 24 24 22 38 51 53 53
31 33 34 34 33 32 32 31 32 31 30 29 28 28 28 29 34 41 33 41 39 34 29 30 23 24 32 28 12 13 16 11 19 28 26 24 27 26 24 22 27 43 56 54 50
33 33 34 36 37 36 34 33 33 32 31 29 28 26 26 20 13 2 14 23 41 35 35 35 34 32 35 21 4 21 13 6 27 25 22 23 25 19 9 23 30 41 50 51 47
35 36 37 36 37 38 38 36 34 33 32 29 27 25 24 22 38 27 18 9 38 43 44 41 39 33 32 9 6 16 13 9 21 15 28 20 17 18 17 20 34 44 46 45 43
36 37 38 40 39 39 40 39 36 33 32 29 27 25 23 38 16 13 21 21 28 45 45 44 33 32 33 20 19 9 15 19 20 24 15 23 22 23 19 30 39 43 43 42 41
37 38 39 40 40 40 39 40 37 34 31 28 25 24 25 42 12 13 22 27 30 44 45 44 39 21 22 25 11 12 20 20 22 21 17 22 21 30 29 34 38 39 39 38 37
40 40 39 40 41 40 39 39 37 33 29 24 22 19 27 13 33 25 24 25 28 34 40 36 35 32 40 10 16 25 30 31 27 22 16 16 25 29 36 37 37 38 39 39 38
43 43 41 41 41 40 38 35 34 31 26 18 11 16 35 24 30 34 32 30 31 31 36 31 34 38 36 28 28 26 30 30 27 27 15 21 29 34 35 37 37 37 37 39 39
46 46 45 42 42 40 32 28 27 26 21 14 20 16 39 30 25 36 38 29 33 33 33 36 29 30 34 29 32 39 41 44 38 24 19 15 23 27 34 35 36 38 38 39 41
49 48 48 42 40 34 23 13 11 9 30 34 20 28 10 19 22 37 44 37 36 39 32 49 34 40 47 44 49 32 32 42 25 37 21 27 17 36 34 36 37 40 42 43 43
51 50 48 40 36 20 19 11 7 12 26 44 53 43 16 26 28 40 48 45 39 38 44 32 47 47 46 46 47 24 27 33 26 31 21 22 22 22 39 39 41 43 44 46 46
54 52 50 40 18 22 9 2 11 20 19 37 58 61 53 33 38 50 59 59 39 45 49 44 46 49 47 45 41 35 34 25 24 22 24 23 18 24 34 43 41 43 45 46 50
53 51 49 42 9 20 4 9 18 16 12 29 30 39 61 45 49 47 59 58 30 43 46 50 43 49 47 48 44 40 39 34 27 27 28 35 27 32 36 40 40 49 50 52 52
53 49 46 39 30 11 15 21 21 8 12 24 29 15 48 65 28 65 59 62 48 39 34 47 46 49 53 48 46 40 39 36 34 25 32 28 19 13 11 26 33 48 55 55 56
54 47 48 22 26 26 23 24 12 13 20 20 25 28 36 57 58 56 63 66 54 39 41 47 52 52 46 45 46 44 44 30 35 27 29 39 23 26 25 26 33 42 56 59 57
52 47 42 30 15 21 24 13 13 21 12 23 30 36 43 38 53 45 60 54 47 42 43 45 51 43 39 45 55 50 44 22 27 28 27 33 30 31 7 28 32 39 52 58 61
51 43 36 24 24 23 14 18 26 19 48 7 28 38 42 39 51 41 56 48 57 48 30 38 41 46 46 55 54 51 47 30 37 27 33 37 33 14 20 22 15 20 47 51 62
49 34 27 22 19 15 24 29 17 36 18 24 23 32 40 39 37 43 53 55 57 53 50 41 52 50 49 42 55 56 47 49 45 41 32 30 32 34 31 28 24 27 33 45 55
53 40 34 23 19 20 24 47 38 21 15 20 35 30 38 43 40 52 50 55 57 62 50 39 31 47 49 45 55 58 42 46 37 44 42 34 23 18 33 29 32 31 36 40 40
32 23 10 7 10 32 29 42 48 68 37 21 29 39 34 39 44 41 52 43 58 58 56 49 25 38 46 49 49 46 47 39 49 40 37 32 29 28 22 19 23 29 33 40 45
29 15 4 8 26 30 31 44 51 51 44 40 34 34 38 36 36 47 44 41 36 54 63 54 27 34 50 45 46 52 57 55 30 47 38 35 33 26 28 29 33 32 19 21 9
24 37 31 20 16 26 36 42 40 32 33 39 46 45 34 35 36 31 36 41 15 40 56 46 43 30 44 40 47 54 50 55 50 42 41 37 34 30 10 17 24 17 16 21 16
27 12 21 27 37 27 32 22 16 28 35 48 43 43 44 43 37 29 37 24 7 28 16 52 42 49 36 42 43 51 55 56 52 39 43 45 43 35 27 32 33 32 31 30 27
25 13 14 14 3 9 20 21 27 28 27 40 29 46 43 42 40 38 36 29 15 29 24 34 48 49 52 51 47 47 50 53 59 56 50 43 50 45 33 29 22 31 33 27 31
36 19 23 34 32 21 23 26 35 35 30 22 31 18 30 43 39 34 42 42 20 37 35 43 39 44 51 48 51 43 53 50 59 60 56 53 50 35 41 52 46 38 39 34 23
18 27 25 28 27 21 21 22 26 13 10 33 18 19 20 15 37 41 43 46 34 22 38 45 36 37 44 46 46 49 58 50 53 52 43 48 49 44 44 25 23 38 40 34 36
Wind_Direction_850mb
320 316 314 313 311 311 311 311 309 308 306 305 307 308 310 306 299 291 266 255 240 241 231 207 226 244 256 259 262 278 270 62 89 70 99 121 110 76 93 128 137 61 137 147 150
319 318 315 310 306 305 305 306 306 303 302 301 301 303 307 307 298 273 257 242 238 236 210 202 223 241 254 258 264 269 11 57 47 112 108 104 111 121 136 117 123 119 130 147 152
315 313 313 311 306 302 301 301 299 298 297 297 297 298 303 312 303 244 229 238 230 223 205 214 236 239 259 261 262 303 39 65 82 84 122 119 116 147 123 147 140 138 148 155 161
314 310 308 308 306 302 300 298 296 295 295 294 294 292 294 300 281 226 245 247 214 202 201 218 233 239 248 245 119 270 97 15 94 113 120 116 131 146 95 70 142 150 157 160 167
321 315 310 305 303 302 300 298 296 295 294 293 290 288 290 256 254 252 253 265 195 190 203 213 223 232 258 295 253 233 93 146 124 108 90 133 94 114 79 126 140 151 160 165 170
330 324 316 310 305 300 298 297 296 293 291 289 285 280 274 259 243 238 234 237 200 195 205 211 223 234 286 292 278 90 195 142 141 117 143 116 121 160 121 137 144 156 166 171 174
331 328 325 319 311 304 297 293 292 291 288 284 277 270 254 244 233 230 203 211 198 202 209 213 222 247 226 262 219 185 164 154 147 157 150 136 159 101 141 150 154 165 172 176 179
331 328 326 323 318 309 299 292 291 290 286 278 266 255 262 268 227 221 193 195 197 207 213 217 224 249 259 292 225 219 177 180 155 170 132 232 114 135 153 160 166 174 178 181 185
330 328 327 327 321 315 305 295 290 289 282 269 252 233 259 216 225 210 199 199 200 205 208 215 219 233 231 235 221 215 207 124 159 192 148 161 134 139 168 169 173 183 185 188 189
329 328 328 332 325 321 314 302 292 282 271 252 241 243 235 226 214 201 195 190 184 181 189 204 212 223 232 214 223 192 231 138 198 175 180 200 118 153 178 181 182 188 189 194 195
329 328 327 334 330 330 332 322 294 224 219 228 231 224 175 177 174 193 187 185 185 187 193 198 203 211 208 217 239 201 156 251 164 156 196 222 186 156 182 194 191 191 194 199 202
332 330 328 336 332 343 4 322 4 327 293 249 246 238 219 195 192 191 185 187 196 199 206 184 214 214 223 219 239 256 258 216 157 144 205 198 218 191 171 204 199 195 196 203 201
332 332 330 339 345 4 329 359 336 328 262 267 229 220 214 206 218 191 191 201 195 204 203 210 211 220 214 224 232 241 238 234 183 163 204 252 254 233 189 188 209 206 200 202 203
330 333 334 334 342 330 328 294 328 319 272 237 207 221 212 206 225 206 199 203 206 214 217 225 218 206 223 225 217 231 227 250 237 163 215 204 254 200 198 191 194 209 202 200 202
324 330 328 332 312 314 299 316 313 288 272 114 152 186 192 194 178 207 196 208 220 212 216 216 220 224 219 213 221 231 222 225 255 190 254 173 256 265 168 191 194 204 206 205 199
318 324 321 338 300 287 301 305 298 231 240 172 152 189 177 198 228 186 199 208 220 225 224 235 214 230 219 216 224 222 242 203 235 245 223 243 237 224 207 199 188 197 207 207 203
314 315 311 299 247 281 301 279 224 238 112 175 176 181 193 190 213 176 193 200 207 214 215 214 232 221 217 222 220 217 232 219 220 225 240 236 218 250 206 174 184 180 201 205 205
314 314 313 279 261 279 274 227 236 241 232 59 201 186 202 192 209 195 190 203 211 212 205 206 216 204 216 227 218 216 222 225 214 226 233 223 250 242 251 274 231 199 183 198 205
319 319 290 265 251 241 230 219 218 242 275 228 209 214 207 205 195 190 213 209 205 214 224 200 223 192 217 216 228 211 221 234 245 223 243 237 194 223 222 218 230 232 193 189 203
325 312 271 236 246 227 229 235 227 278 340 300 254 216 216 207 199 201 203 211 216 211 221 241 222 214 199 213 227 231 205 228 239 245 254 252 232 227 186 216 227 228 208 197 206
333 291 181 245 218 225 231 231 245 265 287 262 270 260 239 219 208 220 212 217 210 210 217 235 233 209 191 208 209 221 224 218 239 236 248 250 252 211 220 189 218 227 209 199 197
301 267 190 262 244 231 237 236 255 261 266 253 263 277 286 268 251 212 224 223 215 213 207 219 227 237 201 204 222 223 219 232 233 229 249 251 249 250 215 184 223 248 242 276 322
287 282 271 246 250 233 248 237 252 266 252 256 252 254 267 274 268 251 247 220 248 208 221 199 227 223 248 195 209 224 225 226 230 246 241 234 242 251 133 161 189 218 249 239 249
292 292 206 215 250 288 292 281 266 255 254 264 274 265 251 244 259 256 245 221 188 245 341 204 219 229 220 222 201 217 223 232 229 233 234 243 252 238 225 198 205 227 229 235 231
261 274 4 295 252 297 313 294 280 262 242 258 264 251 258 242 240 237 256 254 197 240 264 230 224 231 233 255 222 201 220 231 234 235 239 235 239 239 229 247 228 236 253 255 260
281 330 329 290 286 269 257 254 250 250 265 258 242 291 248 253 248 239 245 250 235 221 223 229 226 233 239 234 250 252 219 220 233 232 233 243 254 252 241 244 240 240 243 258 255
292 295 300 287 270 255 260 264 250 11 259 264 346 327 265 309 326 315 308 303 298 283 214 229 218 222 235 229 238 242 238 225 220 236 228 236 241 248 257 259 241 245 250 250 250